Tracking 34403 objects as of 12-Jun-2026
HD Live streaming from Space Station
objects crossing your sky now

THORAD AGENA D DEB

Track THORAD AGENA D DEB now!
10-day predictions


NORAD ID: 6139
Int'l Code: 1970-025MV
Perigee: 842.4 km
Apogee: 944.8 km
Inclination: 98.9 °
Period: 102.7 minutes
Semi major axis: 7264 km
RCS: 0.0148 m2 (small)
Launch date: April 8, 1970
Source: United States (US)
Launch site: AIR FORCE WESTERN TEST RANGE (AFWTR)

Note: This is SATELLITE DEBRIS
Your satellite tracking list
Your tracking list is empty




NASA's NSSDC Master Catalog

Two Line Element Set (TLE):
1 06139U 70025MV  26152.12986867  .00001773  00000-0  11623-2 0  9999
2 06139  98.9167  27.2467 0070480  23.3399 337.0940 14.02130422826761
Source of the keplerian elements: AFSPC